[[{"header":{"parameterUnit":"m.s-1","parameterCategory":1,"la1":30.2991,"la2":30.254,"lo1":-89.0895,"lo2":-89.0444,"dy":0.0017,"dx":0.0017,"nx":28,"ny":28,"refTime":"2025-06-19T21:00:00:Z","depth":0,"parameterNumber":2,"parameterNumberName":"U-component_of_WINDS"},"data":[0,0,0,0,0,0,0,0,0,0,0,0,0,0,0,0,0,0,0,0,0,0,0,0,0,0,0,0,0,0,0,0,0,0,0,0,0,0,0,0,0,0,0,0,0,0,0,0,0,0,0,0,0,0,0,0,0,0,4.9302,4.9304,0,4.9434,4.9435,4.9437,4.9341,4.9337,4.9333,4.9329,4.9466,4.9473,4.9481,0,0,0,0,0,0,0,0,0,0,0,0,0,4.8968,4.8975,4.9302,4.9304,4.9305,4.9433,4.9435,4.9437,4.9342,4.9337,4.9332,4.9327,4.9463,4.9472,4.9481,0,0,0,0,0,0,0,0,0,0,0,0,0,4.9108,4.8977,4.9302,4.9273,4.9272,4.9433,4.9435,4.9438,4.9343,4.9337,4.933,4.9324,4.946,4.9471,4.9483,4.968,0,0,4.9517,4.9522,0,0,0,0,0,0,0,0,4.91,4.912,4.9276,4.9275,4.9274,4.9364,4.9368,4.9519,4.9345,4.9316,4.9329,4.9321,4.9437,4.945,4.9489,4.9686,4.9692,4.9518,4.9525,4.953,4.9533,0,0,0,0,0,0,0,4.9091,4.9114,4.9354,4.9278,4.9277,4.9254,4.9267,4.9396,4.9411,4.9318,4.9311,4.9328,4.9436,4.9478,4.9491,4.9694,4.9518,4.9528,4.9535,4.954,5.0056,5.0062,0,0,0,0,0,0,4.9083,4.9107,4.935,4.9358,4.917,4.9265,4.9279,4.9342,4.9409,4.9413,4.9333,4.9323,4.9462,4.9478,4.9496,4.9728,4.953,4.9541,4.9547,5.0049,5.0057,5.0065,0,0,0,0,0,0,4.9077,4.9106,4.9345,4.9231,4.9259,4.9277,4.9349,4.9348,4.939,4.9421,4.9423,4.9374,4.9457,4.948,4.9634,4.9732,4.9546,4.9556,5.0041,5.0051,5.0061,5.0196,0,0,0,0,0,0,4.9067,4.9104,4.9179,4.9233,4.9266,4.9481,4.9355,4.9355,4.941,4.9398,4.9459,4.9463,4.9454,4.9617,4.9645,4.9744,4.9565,5.0032,5.0045,5.0058,5.0183,5.021,5.0233,0,0,0,0,0,4.9056,4.9214,4.9184,4.9214,4.936,4.9487,4.9505,4.9491,4.9418,4.9493,4.9513,4.9461,4.9717,4.9634,4.9664,4.9768,5.0026,5.0042,5.0057,5.0172,5.0205,5.0232,0,0,0,0,0,0,4.9173,4.922,4.9188,4.9367,4.9424,4.947,4.9565,4.9526,4.9605,4.959,4.957,4.9584,4.9745,4.9772,4.9679,4.996,4.986,4.9882,4.9937,4.9968,4.9992,4.9982,4.9574,0,0,0,0,0,4.9219,4.9318,4.9354,4.9509,4.9539,4.9547,4.9602,4.9586,4.9643,4.9667,4.9697,4.9755,4.9848,4.991,4.9997,5.0187,5.0197,5.0273,5.0298,5.0318,5.0337,5.0436,5.0469,5.0115,5.0115,5.0115,0,0,4.9316,4.9355,4.9418,4.9533,4.9575,4.9677,4.9568,4.9681,4.9756,4.9684,4.983,4.9855,4.9918,5.009,5.0167,5.0117,5.0437,5.0338,5.0354,5.0362,5.0455,5.0489,5.0518,5.0126,5.0124,5.0122,0,0,4.9545,4.9585,4.9717,4.976,4.9823,4.9828,4.986,4.9912,4.9925,5.0071,5.0018,5.0107,5.0268,5.0314,5.0359,5.0603,5.0558,5.0632,5.0762,5.0858,5.0886,5.0911,5.0995,5.1025,5.0651,5.0652,5.0652,0,4.9658,4.9809,4.979,4.9906,4.9957,4.9895,5.0027,5.0071,5.0161,5.0197,5.014,5.0339,5.0377,5.0557,5.0616,5.0656,5.069,5.0624,5.0884,5.0908,5.0931,5.101,5.1042,5.066,5.0659,5.0658,5.0658,0,4.9943,5.0049,5.0148,5.0233,5.0296,5.042,5.0419,5.0485,5.0463,5.0473,5.0621,5.0665,5.0758,5.08,5.0781,5.0977,5.0943,5.0886,5.0784,5.0973,5.1047,5.1078,5.0672,5.0669,5.0667,5.0665,0,0,5.025,5.0321,5.0358,5.0394,5.0459,5.054,5.0661,5.0751,5.0806,5.087,5.0969,5.1106,5.1051,5.1102,5.1087,5.1173,5.1359,5.1104,5.1105,5.1147,5.1574,5.1615,5.1651,5.133,5.1336,5.134,5.1567,0,5.0479,5.0688,5.0673,5.087,5.0965,5.0907,5.1011,5.1062,5.1074,5.1157,5.1171,5.1267,5.119,5.1219,5.1301,5.1319,5.1444,5.1303,5.142,5.1425,5.1404,5.169,5.1735,5.1947,5.1597,5.1602,5.1605,0,5.0775,5.0847,5.1052,5.1099,5.1139,5.1233,5.1313,5.1394,5.1449,5.1452,5.1507,5.1477,5.1598,5.1494,5.1658,5.1562,5.1609,5.1625,5.1633,5.1642,5.1525,5.1704,5.2015,5.2046,5.1652,5.1648,5.1645,0,5.0974,5.1122,5.1263,5.1297,5.1357,5.1424,5.1452,5.1501,5.1555,5.1625,5.1659,5.1744,5.1789,5.1855,5.1847,5.1773,5.2014,5.191,5.2018,5.2018,5.2069,5.2066,5.239,5.2105,5.2104,5.2104,5.2103,0,5.1231,5.1359,5.1353,5.144,5.158,5.1562,5.1701,5.1721,5.1765,5.1854,5.181,5.1894,5.1881,5.1965,5.1961,5.2096,5.2118,5.2122,5.2119,5.2125,5.2124,5.2154,5.2138,5.2112,5.211,5.2108,5.2107,0,5.1477,5.1478,5.1628,5.1671,5.1685,5.1786,5.1823,5.1904,5.1912,5.2025,5.205,5.2063,5.216,5.2159,5.2271,5.2267,5.2431,5.2413,5.2412,5.2407,5.2514,5.2503,5.2867,5.2912,5.26,5.2603,5.2606,0,5.1639,5.1735,5.1788,5.1844,5.1875,5.1966,5.202,5.2006,5.2064,5.2133,5.2206,5.2298,5.237,5.2527,5.2546,5.263,5.2611,5.2733,5.2624,5.2625,5.261,5.2603,5.2611,5.2754,5.2757,5.276,5.2763,0,5.1926,5.1922,5.2001,5.2081,5.2146,5.2209,5.2266,5.2315,5.2306,5.2373,5.2471,5.2527,5.2639,5.273,5.281,5.2838,5.2799,5.2797,5.2826,5.2831,5.2826,5.2827,5.2467,5.2788,5.2786,5.2784,5.2782,5.2781,5.2133,5.2215,5.2264,5.2353,5.2394,5.2448,5.2525,5.2542,5.2623,5.2711,5.2698,5.2806,5.2857,5.296,5.2995,5.3079,5.3036,5.3079,5.3089,5.3099,5.3109,5.2814,5.3094,5.3093,5.3093,5.3092,5.3092,0,5.2416,5.2443,5.2526,5.2606,5.2676,5.2632,5.2692,5.2754,5.2849,5.2899,5.2971,5.3081,5.3169,5.3194,5.3278,5.334,5.3324,5.3363,5.3357,5.3363,5.3145,5.311,5.3374,5.3374,5.3374,5.3374,5.3374,5.3374,5.257,5.2705,5.2706,5.2859,5.2886,5.2991,5.3028,5.3077,5.3117,5.3242,5.3313,5.3329,5.3368,5.3455,5.3532,5.3537,5.3569,5.3615,5.3612,5.3407,5.3379,5.3352,5.3319,5.3623,5.3623,5.3823,5.3825,5.3827]},{"header":{"parameterUnit":"m.s-1","parameterCategory":1,"la1":30.2991,"la2":30.254,"lo1":-89.0895,"lo2":-89.0444,"dy":0.0017,"dx":0.0017,"nx":28,"ny":28,"refTime":"2025-06-19T21:00:00:Z","depth":0,"parameterNumber":3,"parameterNumberName":"V-component_of_WINDS"},"data":[0,0,0,0,0,0,0,0,0,0,0,0,0,0,0,0,0,0,0,0,0,0,0,0,0,0,0,0,0,0,0,0,0,0,0,0,0,0,0,0,0,0,0,0,0,0,0,0,0,0,0,0,0,0,0,0,0,0,1.9375,1.9376,0,1.9473,1.9474,1.9475,1.9476,1.9475,1.9474,1.9472,1.9572,1.9575,1.9579,0,0,0,0,0,0,0,0,0,0,0,0,0,1.9186,1.9189,1.9375,1.9376,1.9377,1.9473,1.9474,1.9475,1.9476,1.9475,1.9473,1.9472,1.957,1.9575,1.9579,0,0,0,0,0,0,0,0,0,0,0,0,0,1.9274,1.919,1.9375,1.9389,1.9391,1.9473,1.9474,1.9476,1.9477,1.9475,1.9473,1.9471,1.9569,1.9574,1.958,1.9653,0,0,1.9597,1.96,0,0,0,0,0,0,0,0,1.9269,1.9281,1.9386,1.9388,1.9391,1.946,1.9444,1.9535,1.9477,1.9444,1.9472,1.947,1.9536,1.9544,1.9567,1.9657,1.9662,1.9598,1.9601,1.9604,1.9605,0,0,0,0,0,0,0,1.9263,1.9277,1.9414,1.9387,1.9391,1.939,1.9401,1.9461,1.9499,1.9447,1.9447,1.9459,1.9537,1.9561,1.9569,1.9663,1.9598,1.9603,1.9606,1.9609,1.9816,1.9818,0,0,0,0,0,0,1.9254,1.9272,1.941,1.9417,1.9324,1.9395,1.9407,1.944,1.9499,1.9506,1.946,1.9459,1.9552,1.9562,1.9573,1.9661,1.9604,1.9609,1.9612,1.9814,1.9816,1.9819,0,0,0,0,0,0,1.925,1.9267,1.9407,1.9344,1.9362,1.94,1.9438,1.9443,1.9467,1.9509,1.9516,1.9478,1.9551,1.9565,1.9632,1.9664,1.9612,1.9617,1.9811,1.9815,1.9818,1.9837,0,0,0,0,0,0,1.9245,1.9265,1.9294,1.9345,1.9365,1.9466,1.944,1.9446,1.9477,1.9476,1.9527,1.9534,1.9551,1.9624,1.9638,1.9671,1.9621,1.9809,1.9813,1.9817,1.9834,1.9841,1.9847,0,0,0,0,0,1.9238,1.9296,1.9295,1.9312,1.9402,1.9468,1.9479,1.9498,1.948,1.9508,1.9535,1.9533,1.9658,1.9631,1.9647,1.9682,1.9807,1.9812,1.9816,1.9831,1.984,1.9846,0,0,0,0,0,0,1.9247,1.9303,1.9303,1.9379,1.9419,1.9468,1.9505,1.9506,1.9551,1.9548,1.9568,1.958,1.9647,1.9671,1.964,1.9754,1.973,1.9738,1.9736,1.9744,1.975,1.9743,1.9626,0,0,0,0,0,1.9258,1.9307,1.9353,1.9415,1.9435,1.9466,1.9495,1.9506,1.9548,1.9564,1.9596,1.9636,1.9684,1.9715,1.9762,1.9837,1.9848,1.9869,1.9875,1.988,1.9887,1.9927,1.9936,1.9834,1.9834,1.9834,0,0,1.9281,1.9318,1.9347,1.9418,1.945,1.9499,1.948,1.9534,1.957,1.9572,1.9638,1.9662,1.9708,1.978,1.9813,1.9802,1.9917,1.9886,1.989,1.9894,1.9933,1.9942,1.9951,1.9837,1.9837,1.9836,0,0,1.9349,1.9382,1.9437,1.9469,1.9517,1.9537,1.955,1.9599,1.9615,1.9682,1.9683,1.9727,1.981,1.9842,1.9869,1.9946,1.9945,1.9961,1.9993,2.0032,2.004,2.0047,2.0074,2.0084,1.9967,1.9967,1.9967,0,1.9371,1.9447,1.9465,1.9518,1.9549,1.9552,1.9608,1.9638,1.9699,1.9719,1.9706,1.9809,1.984,1.9919,1.9937,1.9959,1.9974,1.9955,2.0038,2.0045,2.0052,2.0078,2.0088,1.9969,1.9969,1.9969,1.9968,0,1.9472,1.9523,1.9562,1.9621,1.9656,1.971,1.9735,1.9768,1.9775,1.9796,1.9862,1.9899,1.9953,1.9972,1.998,2.0051,2.0043,2.0033,2.001,2.0063,2.0087,2.0098,1.9971,1.9971,1.997,1.997,0,0,1.9549,1.9616,1.963,1.9656,1.9709,1.9749,1.9802,1.9855,1.9882,1.9923,1.9968,2.0037,2.0028,2.0059,2.007,2.0104,2.0161,2.009,2.0091,2.0101,2.024,2.0247,2.0258,2.016,2.0162,2.0164,2.0236,0,1.9622,1.9718,1.9735,1.9818,1.9865,1.9868,1.9914,1.9951,1.9972,2.0014,2.0036,2.0085,2.007,2.0088,2.0122,2.0147,2.0189,2.0142,2.0201,2.0203,2.019,2.0271,2.0279,2.0345,2.0246,2.0248,2.0249,0,1.972,1.9763,1.9851,1.9896,1.9917,1.9958,2.0007,2.0048,2.0088,2.0101,2.0134,2.0141,2.0195,2.0168,2.0242,2.021,2.0235,2.025,2.0253,2.0259,2.0229,2.0279,2.0367,2.0377,2.0264,2.0263,2.0262,0,1.9766,1.9847,1.991,1.9932,1.9986,2.0015,2.0039,2.0078,2.0108,2.015,2.0169,2.0217,2.0243,2.0279,2.0298,2.0277,2.037,2.0345,2.0381,2.0381,2.0401,2.0399,2.0494,2.0417,2.0417,2.0417,2.0417,0,1.9846,1.9899,1.9931,1.997,2.0029,2.0048,2.0106,2.0129,2.0163,2.0205,2.021,2.025,2.0272,2.0314,2.0329,2.0387,2.0399,2.041,2.0413,2.0409,2.0408,2.0426,2.0422,2.042,2.0419,2.0418,2.0418,0,1.9909,1.9932,2.0001,2.0046,2.0058,2.01,2.0138,2.0175,2.0195,2.0248,2.0261,2.0292,2.0342,2.0363,2.0425,2.0434,2.0501,2.0501,2.0487,2.0488,2.0522,2.0519,2.0632,2.0647,2.0561,2.0561,2.0562,0,1.9958,1.9999,2.0048,2.0077,2.0101,2.0148,2.0178,2.0197,2.0228,2.0277,2.0307,2.0357,2.0398,2.0477,2.0504,2.055,2.0551,2.0587,2.0558,2.0553,2.0551,2.0548,2.0552,2.0593,2.0594,2.0594,2.0595,0,2.0042,2.0051,2.0095,2.0143,2.0179,2.0217,2.0255,2.0278,2.0302,2.0337,2.0388,2.0419,2.0481,2.053,2.0578,2.0601,2.0602,2.0604,2.0614,2.0611,2.0601,2.0606,2.0501,2.0601,2.0601,2.06,2.06,2.06,2.0099,2.0135,2.0175,2.0223,2.0253,2.0288,2.0324,2.0348,2.0391,2.0443,2.0452,2.0505,2.0543,2.0607,2.0632,2.0674,2.0665,2.068,2.0684,2.0688,2.0689,2.0594,2.0683,2.0682,2.0682,2.0682,2.0682,0,2.0183,2.0209,2.0253,2.0305,2.0342,2.034,2.0381,2.0412,2.046,2.0495,2.0535,2.0592,2.0639,2.0669,2.0717,2.0744,2.0745,2.0755,2.0754,2.0759,2.0695,2.0681,2.0753,2.0753,2.0753,2.0753,2.0753,2.0753,2.0231,2.0292,2.0306,2.0381,2.0405,2.0459,2.0482,2.0513,2.0542,2.0606,2.0645,2.0664,2.0697,2.0746,2.0789,2.0796,2.0813,2.0824,2.083,2.0771,2.0763,2.0756,2.0743,2.0827,2.0827,2.089,2.0891,2.0891]}]]